Voltar ao catálogo

FENGYUN 1C DEB

AtivoSSO
NORAD 38149·DEBRIS·🇨🇳 China

Lançado May 10, 1999 de Taiyuan Satellite Launch Center

Loading…

Próximas Passagens (próximas 24 horas)

TLE

ObsoletoSource: Space-Track

Época: Aug 31, 2026, 04:45 UTC

1 38149U 99025EQW 26243.19851610  .00000289  00000-0  13316-3 0  9994
2 38149  98.3770 228.7744 0078620 113.1959 247.7528 14.26195302742143

Acompanhe FENGYUN 1C DEB em tempo real com AllMySat

Download on the App Store